Location: Bremen
(53.0793°N, 8.8017°E)
Time: 11:14:53
(UTC+01:00)

deb Explorer IX - Pass Details

Date: 09 December 2021
Orbit: 544 x 1082 km, 38.8° (Epoch: 14 January)

Event Time Altitude Azimuth Distance (km) Brightness Sun altitude
Rises 09:02:22 0° 220° (SW) 3,313 ? 3.1°
Reaches altitude 10° 09:06:29 10° 192° (SSW) 2,241 ? 3.6°
Maximum altitude 09:08:35 12° 168° (SSE) 2,006 ? 3.8°
Drops below altitude 10° 09:10:36 10° 144° (SE) 2,104 ? 4.0°
Sets 09:14:10 0° 114° (ESE) 2,904 ? 4.3°
